Regional Weather Roundup
Issued by NWS

Home | Current Version | Previous Version | Text Only | Print | Product List | Glossary On
Versions: 1 2 3 4 5 6 7 8 9 10 11 12 13 14 15 16 17 18 19 20 21 22 23 24 25 26 27 28 29 30 31 32 33 34 35 36 37 38 39 40 41 42 43 44 45 46 47 48 49 50
000
ASUS44 KLIX 230010
RWRLA
LOUISIANA WEATHER ROUNDUP
NATIONAL WEATHER SERVICE NEW ORLEANS LA
700 PM CDT WED OCT 22 2014

NOTE: "FAIR" INDICATES FEW OR NO CLOUDS BELOW 12,000 FEET WITH NO
      SIGNIFICANT WEATHER AND/OR OBSTRUCTIONS TO VISIBILITY.
      SKY/WX - SKY CONDITION AND SIGNIFICANT WEATHER.
      TMP - AIR TEMPERATURE.    DP   - DEWPOINT TEMPERATURE.
      RH  - RELATIVE HUMIDITY.  PRES - PRESSURE.
      HX  - HEAT INDEX.         WCI  - WIND CHILL INDEX.

*  THESE STATIONS ARE NOT NWS OR FAA STATIONS AND ARE NOT UNDER
   NWS QUALITY CONTROL.

LAZ040-048-061>063-065-066-069-230100-
SOUTHEAST LOUISIANA

CITY           SKY/WX    TMP DP  RH WIND       PRES   REMARKS
N.O. AUDUBON     N/A     73  56  54 MISG        N/A
6HR MIN TEMP:  72; 6HR MAX TEMP:  82;

N.O. INTL ARPT PTCLDY    71  52  50 NE5       30.03R
6HR MIN TEMP:  71; 6HR MAX TEMP:  79;

N.O. LAKEFRONT CLEAR     74  58  57 N5        30.04R
6HR MIN TEMP:  73; 6HR MAX TEMP:  80;

N.O. DOWNTOWN* FAIR      73  52  46 CALM      30.04S
6HR MIN TEMP:  73; 6HR MAX TEMP:  79;

SLIDELL        CLEAR     65  58  78 CALM      30.04R
6HR MIN TEMP:  64; 6HR MAX TEMP:  81;

BATON ROUGE    CLEAR     65  55  70 N3        30.05R
6HR MIN TEMP:  65; 6HR MAX TEMP:  80;

BOOTHVILLE     CLEAR     72  57  59 NE8       30.03R
6HR MIN TEMP:  72; 6HR MAX TEMP:  77;

BELLE CHASSE   CLEAR     63  57  81 CALM      30.03R
6HR MIN TEMP:  63; 6HR MAX TEMP:  79;

BOGALUSA*      FAIR      67  50  54 N5        30.07R
6HR MIN TEMP:  67; 6HR MAX TEMP:  82;

NEW ROADS*     FAIR      68  55  64 N5        30.05S
6HR MIN TEMP:  68; 6HR MAX TEMP:  79;

GONZALES*      FAIR      64  60  85 CALM      30.04R
6HR MIN TEMP:  64; 6HR MAX TEMP:  80;

HAMMOND*       CLEAR     68  54  60 CALM      30.06R
HOUMA*         CLEAR     70  54  56 NE5       30.03R
PORT FOURCHON* CLEAR     73  55  53 NE12      30.06S

$$

LAZ041-044-053-054-230100-
SOUTHWEST LOUISIANA

CITY           SKY/WX    TMP DP  RH WIND       PRES   REMARKS
LAKE CHARLES   CLEAR     70  58  65 NE7       30.04R
6HR MIN TEMP:  70; 6HR MAX TEMP:  81;

LAFAYETTE      CLEAR     69  56  62 N6        30.05R
6HR MIN TEMP:  69; 6HR MAX TEMP:  81;

PATTERSON      CLEAR     68  59  73 N3        30.06R
6HR MIN TEMP:  68; 6HR MAX TEMP:  81;

SALT POINT       N/A     71  60  68 CALM      30.02R
6HR MIN TEMP:  71; 6HR MAX TEMP:  82;

NEW IBERIA     CLEAR     70  56  61 N5        30.05R
6HR MIN TEMP:  70; 6HR MAX TEMP:  82;

CHENAULT AIRPK CLEAR     72  57  60 N3        30.05R

$$

LAZ027-028-230100-
CENTRAL LOUISIANA

CITY           SKY/WX    TMP DP  RH WIND       PRES   REMARKS
FORT POLK      CLEAR     67  55  65 NE6       30.07R
6HR MIN TEMP:  67; 6HR MAX TEMP:  78;

ALEXANDRIA INT CLEAR     64  56  75 NE3       30.07R
6HR MIN TEMP:  64; 6HR MAX TEMP:  79;

ALEXANDRIA     CLEAR     60  55  83 CALM      30.08R
6HR MIN TEMP:  60; 6HR MAX TEMP:  78;


$$

LAZ001-002-230100-
NORTHWEST LOUISIANA

CITY           SKY/WX    TMP DP  RH WIND       PRES   REMARKS
SHREVEPORT     CLEAR     67  51  56 E6        30.09S
6HR MIN TEMP:  67; 6HR MAX TEMP:  79;

BARKSDALE AFB  CLEAR     67  52  58 NE6       30.10R
6HR MIN TEMP:  67; 6HR MAX TEMP:  79;

DTN SHREVEPORT CLEAR     67  51  56 NE3       30.10R
6HR MIN TEMP:  67; 6HR MAX TEMP:  77;


$$

LAZ014-016-230100-
NORTHEAST LOUISIANA

CITY           SKY/WX    TMP DP  RH WIND       PRES   REMARKS
MONROE         CLEAR     63  51  65 NE3       30.11S
6HR MIN TEMP:  61; 6HR MAX TEMP:  77;

TALLULAH       CLEAR     60  49  66 N5        30.10S
6HR MIN TEMP:  60; 6HR MAX TEMP:  77;


$$




USA.gov is the U.S. government's official web portal to all federal, state and local government web resources and services.